Location: Wawayanda State Park
(41.1833°N, 74.4333°W)
Time: 07:04:42
(UTC-04:00)

Daily predictions for brighter satellites

Satellite Brightness Start Highest point End
(mag) Time Altitude Azimuth Time Altitude Azimuth Time Altitude Azimuth
Meteor 1-29 3.3 20:52:57 10° NNE 20:56:11 43° E 20:59:25 10° S
Cosmos 2058 Rocket 4.4 20:52:38 10° NNE 20:56:13 23° ENE 20:59:48 10° SE
Cosmos 1743 4.1 20:53:18 10° NNW 20:57:00 42° W 21:00:41 10° SSW
Cosmos 1697 Rocket 3.9 20:56:49 10° N 21:01:35 27° NE 21:06:19 10° ESE
Cosmos 2074 Rocket 4.4 20:56:14 10° NNW 21:02:29 71° W 21:08:43 10° S
TELKOM 3 3.9 21:02:37 10° NW 21:04:43 42° NNE 21:07:21 10° ESE
Lacrosse 5 rocket 4.2 21:04:58 10° NNW 21:07:16 13° NNE 21:09:33 10° NE
Helios 1A 3.1 21:03:03 10° SSE 21:07:16 83° WSW 21:11:29 10° NNW
Cosmos 1666 3.8 21:05:35 10° NNW 21:09:10 44° W 21:12:43 10° SSW
CZ-4B DEB 2.5 21:09:02 10° SSE 21:12:00 87° E 21:15:00 10° NNW
Cosmos 2369 3.9 21:07:03 10° NNW 21:12:45 63° ENE 21:18:16 11° SE
Helios 1B rocket 2.6 21:09:44 10° NNE 21:13:54 82° WNW 21:18:02 10° SSW
Cosmos 2181 Rocket 4.4 21:09:32 10° SSE 21:15:31 46° E 21:21:27 10° NNE
Cosmos 1833 Rocket 3.1 21:10:44 10° S 21:15:57 41° ESE 21:21:12 10° NE
Cosmos 1624 Rocket 4.2 21:14:23 10° NNW 21:19:41 78° WSW 21:24:59 10° SSE
Cosmos 921 Rocket 3.1 21:16:18 10° NNW 21:20:46 68° ENE 21:24:50 12° SSE
Meteor 1-15 Rocket 4.2 21:16:34 10° N 21:22:11 87° W 21:27:45 10° S
Cosmos 2228 3.8 21:18:14 10° N 21:22:11 35° ENE 21:25:24 14° SE
Resurs 01 Rocket 4.0 21:21:21 10° SW 21:24:43 21° W 21:28:05 10° NW
MOS 1-B Rocket 4.3 21:22:29 11° SE 21:28:00 56° ENE 21:34:37 10° N
Cosmos 962 Rocket 4.5 21:22:20 10° N 21:28:34 71° E 21:34:41 10° SSE
H-2A R/B 4.4 14:15:41 10° SW 21:28:54 38° SW 21:35:40 12° SSE
SPOT 5 3.6 21:25:57 14° SE 21:29:04 32° ENE 21:32:59 10° N
Okean 2 3.7 21:25:49 10° SSW 21:29:52 70° W 21:33:58 10° N
Envisat 4.1 21:31:46 10° S 21:36:34 42° W 21:41:23 10° NNW
Lacrosse 5 3.6 21:39:42 14° ESE 21:39:42 14° ESE 21:41:31 10° E
H-2A R/B 3.1 21:35:35 15° ESE 21:38:50 30° ENE 21:43:13 10° N
Cosmos 2056 Rocket 4.1 21:34:39 10° NNW 21:39:40 54° WSW 21:44:37 10° S
Cosmos 1515 3.8 21:38:46 10° SSW 21:42:33 76° W 21:46:23 10° N
Cosmos 1066 Rocket 4.4 21:39:06 10° S 21:44:27 54° E 21:49:58 10° NNE
ISS -0.8 21:42:57 10° NW 21:45:02 15° N 21:47:06 10° NNE
SL-8 Rocket 4.2 21:38:52 10° N 21:45:04 59° E 21:49:59 17° SSE
ARGOS 3.4 21:43:11 17° SE 21:47:15 58° ENE 21:52:35 10° N
Cosmos 1437 Rocket 4.0 21:45:39 10° NNW 21:49:17 39° W 21:52:56 10° SSW
GPS 2-04 Rocket1 4.4 21:47:53 10° SSW 21:48:46 13° S 21:48:46 13° S
Cosmos 1892 Rocket 3.9 21:46:59 10° SSW 21:51:23 69° W 21:55:46 10° N
Cosmos 1980 Rocket 2.9 21:46:34 10° N 21:51:54 40° ENE 21:55:24 19° ESE
Cosmos 2366 rocket 4.3 21:47:08 10° N 21:53:05 49° ENE 21:57:05 20° SE
Cosmos 1420 Rocket 4.3 21:48:20 10° N 21:53:29 53° ENE 21:56:39 22° SE
Cosmos 1269 Rocket 4.5 21:50:53 16° SSE 21:54:37 40° ESE 21:59:33 10° NE
Cosmos 1602 Rocket 4.0 21:53:36 23° SSE 21:55:51 41° E 21:59:56 10° NNE
Cosmos 1048 Rocket 4.3 21:53:09 16° SSE 21:56:49 43° ESE 22:01:43 10° NNE
MetOp-B 4.1 21:54:11 17° SSE 21:58:25 90° WSW 22:03:48 10° NNW
Hubble Space Telescope 2.8 21:57:34 10° SSW 21:58:52 13° S 21:58:52 13° S
CZ-3A R/B 1.9 22:00:10 10° WSW 22:03:07 31° NW 22:04:33 10° NNE
Cosmos 2322 Rocket 4.0 22:00:31 10° N 22:04:44 21° NE 22:08:15 12° E
ERS-1 Rocket 3.6 22:01:26 13° S 22:05:51 54° W 22:10:47 10° NNW
Meteor 1-4 Rocket 2.4 22:02:51 10° N 22:06:25 76° E 22:07:49 34° SSE
ATLAS CENTAUR R/B 3.4 22:06:13 10° N 22:08:21 15° NE 22:10:13 11° ENE
Cosmos 1809 Rocket 4.4 22:04:20 10° N 22:10:26 73° E 22:14:20 23° SSE
NOAA 11 4.5 22:06:32 16° S 22:10:55 64° WSW 22:16:20 10° NNW
Cosmos 1452 Rocket 3.7 22:06:05 10° NNW 22:11:20 71° WSW 22:14:42 22° S
Cosmos 1959 Rocket 4.5 22:05:54 10° N 22:12:17 79° E 22:16:33 22° SSE
Tiangong 2 0.9 22:13:32 10° WNW 22:16:44 84° SSW 22:17:23 53° ESE
Cosmos 389 Rocket 4.4 22:16:43 10° NNE 22:18:58 16° ENE 22:19:05 16° ENE
CARTOSAT-1 4.4 22:20:45 29° ESE 22:22:03 36° ENE 22:26:00 10° N
Nimbus 7 Rocket 4.4 22:17:38 10° NNE 22:23:45 82° ESE 22:28:50 15° SSW
Cosmos 1766 3.3 22:20:50 10° N 22:24:42 61° E 22:25:39 44° SE
Cosmos 1953 3.7 22:23:40 10° NNE 22:27:01 24° ENE 22:27:32 23° E
USA 229 DEB 3.8 22:21:47 10° NNW 22:28:58 81° NE 22:33:04 29° SE
Meteor 1-21 4.3 22:25:57 27° SSE 22:29:01 64° E 22:34:44 10° NNE
USA 229 3.8 22:21:53 10° NNW 22:29:05 80° NE 22:33:10 29° SE
USA 245 3.4 22:29:30 33° W 22:29:30 33° W 22:31:28 10° NNW
Landsat 7 3.9 22:27:34 35° SE 22:29:26 65° ENE 22:34:10 10° N
SPOT 1/Viking Rocket 3.5 22:27:59 29° S 22:30:40 82° WSW 22:35:51 10° NNW
Cosmos 2082 Rocket 3.3 22:25:50 10° SW 22:31:15 45° WNW 22:36:40 10° NNE
Cosmos 158 Rocket 4.0 22:31:05 16° SSW 22:35:19 88° WNW 22:40:45 10° NNE
Cosmos 2218 Rocket 4.3 22:33:14 10° NNW 22:39:19 64° W 22:43:21 22° SSW
Timation 2 Rocket 4.2 22:33:54 10° SSW 22:40:14 69° WNW 22:46:22 10° NNE
Cosmos 2251 Rocket 4.4 22:40:17 31° ESE 22:40:45 31° E 22:45:26 10° NE
SL-08 RB Rocket 4.4 22:42:05 27° SSW 22:44:08 46° W 22:48:28 10° NNW
Terra 1.9 22:43:04 43° SE 22:44:28 64° ENE 22:49:12 10° N
Cosmos 1758 Rocket 4.4 22:44:41 33° E 22:44:44 33° E 22:48:39 10° NNE
Cosmos 1697 Rocket 3.4 22:40:24 10° NW 22:45:43 44° WSW 22:48:28 26° SSW
H-2A R/B 2.3 22:45:17 46° SE 22:46:24 62° ENE 22:50:52 10° N
Lacrosse 5 rocket 2.8 22:43:25 10° NNW 22:47:43 36° NE 22:49:48 24° E
Cosmos 1812 Rocket 3.7 22:45:31 10° NNW 22:49:58 69° W 22:51:20 43° SSW
Cosmos 1805 3.2 22:46:24 10° N 22:50:18 65° E 22:50:34 62° ESE
CZ-4B R/B 4.0 22:48:06 10° NNE 22:53:00 42° E 22:53:41 40° ESE
Cosmos 494 Rocket 4.2 22:56:28 45° SE 22:57:05 48° ESE 23:02:03 10° NNE
Iridium 2 3.5 22:54:38 10° N 22:58:26 84° W 22:58:41 77° SSW
SL-16 R/B 2.7 22:54:16 10° NNW 22:59:47 50° ENE 23:01:37 37° ESE
Cosmos 2360 4.3 22:56:53 10° NNW 23:02:34 68° WSW 23:04:27 42° S
Cosmos 1544 3.1 22:59:33 10° NNW 23:03:10 71° W 23:03:12 71° WSW
Nadezhda 3 Rocket 4.0 23:00:38 35° S 23:03:32 85° E 23:09:55 10° N
SL-19 R/B 4.3 23:07:17 64° ENE 23:07:18 64° ENE 23:10:51 10° N
Cosmos 1825 Rocket 3.4 23:10:25 67° SSW 23:10:59 85° W 23:15:19 10° N
Cosmos 1758 3.1 23:07:47 10° N 23:11:47 88° W 23:11:51 87° SW
Cosmos 1953 Rocket 3.5 23:11:52 68° ESE 23:12:08 70° E 23:16:34 10° NNE
Cosmos 1821 Rocket 4.0 23:09:32 10° N 23:15:52 72° E 23:17:48 46° SSE
Cosmos 1271 Rocket 3.7 23:12:26 10° NNW 23:16:07 39° W 23:16:35 37° WSW
Spot 4 3.8 23:16:19 61° SE 23:17:01 72° ENE 23:21:50 10° N
H-2A R/B 3.3 23:16:12 24° SW 23:18:10 32° W 23:22:42 10° NNW
Cosmos 1842 4.4 23:18:35 32° WSW 23:19:32 37° WNW 23:23:14 10° N
Cosmos 1733 3.8 23:16:35 10° N 23:19:52 48° NE 23:19:52 48° NE
SME Rocket 4.2 23:20:27 35° E 23:20:54 36° ENE 23:24:35 10° N
Lacrosse 5 1.8 23:18:42 31° SW 23:21:09 88° NW 23:26:15 10° NE
ISS -0.8 23:20:31 10° NNW 23:22:32 15° N 23:24:32 10° NE
Cosmos-2242 3.4 23:22:24 10° N 23:26:24 50° ENE 23:26:24 50° ENE
ALOS 2 4.2 23:32:10 22° ENE 23:32:27 23° ENE 23:35:52 10° NNE
Cosmos 2360 Rocket 3.1 23:29:29 10° N 23:34:48 39° ENE 23:36:19 33° E
Cosmos 1980 Rocket 3.5 23:30:55 10° NW 23:35:42 29° WSW 23:37:10 25° SW
CZ-4C R/B 3.7 23:38:56 55° NNW 23:38:56 55° NNW 23:41:54 10° NNW
Cosmos 1605 Rocket 4.1 23:32:45 10° N 23:38:46 57° E 23:40:00 48° ESE
Cosmos 1331 Rocket 4.0 23:34:12 10° NNW 23:39:19 66° WSW 23:39:53 61° SW
USA 267 3.8 23:35:06 10° ENE 23:40:26 37° ESE 23:40:26 37° ESE
Cosmos 1535 Rocket 4.5 23:38:20 10° N 23:44:26 73° W 23:45:57 52° SSW
Cosmos 1110 Rocket 4.4 23:40:08 10° NNW 23:45:12 51° WSW 23:45:47 48° SW
SeaSat 1 4.1 23:44:24 21° E 23:46:04 25° NE 23:50:05 10° N
ATLAS CENTAUR R/B 2.4 23:44:04 10° NW 23:46:30 35° WNW 23:46:30 35° WNW
COSMOS 2428 4.4 23:44:24 10° N 23:49:08 25° NE 23:51:29 20° E
Cosmos 2322 Rocket 2.2 23:43:38 10° NNW 23:49:17 66° WSW 23:50:04 59° SSW
Cosmos 1302 Rocket 3.8 23:45:00 10° NNW 23:50:18 88° ENE 23:50:45 76° SSE
NOSS 3-1 (C) 4.1 23:43:58 10° NW 23:51:36 69° WSW 23:54:12 46° S
Cosmos 389 Rocket 4.5 23:50:58 10° NW 23:53:06 23° WNW 23:53:06 23° WNW
